Location: Killam
(52.7910°N, 111.8608°W)
Time: 04:54:20
(UTC+00:00)

A-11 Canister half - Pass Details

Date: 19 February 2026
Orbit: 1524 x 1683 km, 47.3° (Epoch: 13 March)

Event Time Altitude Azimuth Distance (km) Brightness Sun altitude
Rises 07:10:23 0° 284° (WNW) 4,681 11.8 -48.0°
Enters shadow 07:13:49 - 270° (W) 3,911 11.2 -48.1°
Reaches altitude 10° 07:14:58 10° 265° (W) 3,705 - -48.1°
Maximum altitude 07:19:57 16° 231° (SW) 3,271 - -48.2°
Drops below altitude 10° 07:25:00 10° 198° (SSW) 3,741 - -48.3°
Sets 07:29:42 0° 179° (S) 4,750 - -48.4°
